Regional Weather Roundup
Issued by NWS

Home | Current Version | Previous Version | Graphics & Text | Print | Product List | Glossary On
Versions: 1 2 3 4 5 6 7 8 9 10 11 12 13 14 15 16 17 18 19 20 21 22 23 24 25 26 27 28 29 30 31 32 33 34 35 36 37 38 39 40 41 42 43 44 45 46 47 48 49 50
000
ASUS43 KDMX 240806
RWRIA

WEATHER ROUNDUP FOR IOWA
NATIONAL WEATHER SERVICE DES MOINES IA
300 AM CDT SUN SEP 24 2017

NOTE: "FAIR" INDICATES FEW OR NO CLOUDS BELOW 12,000 FEET WITH NO
SIGNIFICANT WEATHER AND/OR OBSTRUCTIONS TO VISIBILITY.

* - THESE STATIONS ARE NOT NWS STATIONS...THUS NOT UNDER NWS
QUALITY CONTROL.  THEY ALSO DO NOT REPORT WEATHER SUCH
AS PRECIPITATION OR FOG.

IAZ001>003-012>014-020>022-031>034-043>046-240900-
   NORTHWEST IOWA

CITY           SKY/WX    TMP DP  RH WIND       PRES   REMARKS
CARROLL *      CLEAR     64  64 100 S5        29.94F
CHEROKEE *     PTCLDY    67  65  91 SE6       29.92S
DENISON *      PTCLDY    72  66  83 S12       29.94S
LE MARS *      CLEAR     63  63 100 CALM      29.89F
ORANGE CITY *  CLEAR     70  66  88 SE5       29.91S
SHELDON *      PTCLDY    70  64  83 S9        29.90S
SIOUX CITY     CLEAR     59  59 100 S3        29.89S
SPENCER        PTCLDY    66  62  87 S5        29.93F
STORM LAKE *   CLEAR     68  64  88 SE7       29.94S
$$

IAZ055>058-069>071-079>083-090>094-240900-
   SOUTHWEST IOWA

CITY           SKY/WX    TMP DP  RH WIND       PRES   REMARKS
ATLANTIC *     CLEAR     72  66  83 S7        29.94F
AUDUBON *      CLEAR     64  61  88 CALM      29.96F
CLARINDA *     CLEAR     63  63 100 CALM      29.96S
COUNCIL BLFS * CLEAR     70  68  94 SE9       29.92S
CRESTON *      CLEAR     68  64  88 SE5       29.99R
HARLAN  *      PTCLDY    72  66  83 S7        29.97S
LAMONI         CLEAR     72  64  76 SE5       29.97F
RED OAK *      CLEAR     70  66  88 S3        29.94S
SHENANDOAH *   CLEAR     70  66  88 SE7       29.93S
$$

IAZ047>049-059>061-072>074-084-240900-
   CENTRAL IOWA

CITY           SKY/WX    TMP DP  RH WIND       PRES   REMARKS
AMES           CLOUDY    69  65  86 SE6       29.97S
ANKENY *       CLOUDY    70  64  83 CALM      29.98S
BOONE *        PTCLDY    68  64  88 SE7       29.96S
CHARITON *     CLEAR     70  63  78 SE7       29.98S
DES MOINES     CLOUDY    73  64  73 SE8       29.96S
GRINNELL*      PTCLDY    70  62  76 SE5       30.01S
KNOXVILLE *    CLEAR     72  63  73 SE5       29.97F
MARSHALLTOWN   CLEAR     72  63  73 SE7       29.98S
NEWTON *       CLEAR     70  63  78 SE7       29.99S
PELLA *        PTCLDY    71  62  73 SE5       30.00S
PERRY *          N/A     66  65  96 SE3       29.96S
$$

IAZ004>006-015-016-023>025-035-036-240900-
   NORTH CENTRAL IOWA

CITY           SKY/WX    TMP DP  RH WIND       PRES   REMARKS
ALGONA *       CLEAR     72  66  83 SE8       29.95S
CLARION *      PTCLDY    70  64  83 SE8       29.97S
ESTHERVILLE    CLEAR     66  64  93 SW5       29.94R
FORT DODGE *   PTCLDY    73  65  75 SE6       29.96S
MASON CITY     CLEAR     69  62  78 SE10      29.99S
FOREST CITY *    N/A     68  63  83 S8        29.97S
WEBSTER CITY * PTCLDY    70  64  83 SE7       29.95S
IOWA FALLS *     N/A     68  63  84 SE7       29.99F
$$

IAZ007>011-017>019-026>030-037>042-050>054-066-240900-
   NORTHEAST IOWA

CITY           SKY/WX    TMP DP  RH WIND       PRES   REMARKS
CEDAR RAPIDS     N/A     66  62  87 SE3       30.01R
CHARLES CITY * CLEAR     70  64  83 SE7       30.00F
CLINTON *      CLEAR    N/A N/A N/A E6        30.04S
DECORAH *      CLEAR     70  63  78 S6        30.02R
DUBUQUE        CLEAR     68  62  81 S3        30.05S
MONTICELLO *   CLEAR     64  63  94 CALM      30.02S
OELWEIN *      CLEAR     70  64  83 SE7       30.03R
WATERLOO       CLEAR     71  62  73 S8        29.99S
$$

IAZ064-065-067-068-078-240900-
   EAST CENTRAL IOWA

CITY           SKY/WX    TMP DP  RH WIND       PRES   REMARKS
DAVENPORT      CLEAR     67  62  84 SE6       30.05R
IOWA CITY      CLEAR     69  64  84 CALM      30.02S
MUSCATINE *    CLEAR     66  63  88 CALM      30.02S
QUAD CITIES    CLEAR     69  62  78 E5        30.02R
$$

IAZ062-063-075>077-085>089-095>099-240900-
   SOUTHEAST IOWA

CITY           SKY/WX    TMP DP  RH WIND       PRES   REMARKS
BURLINGTON     CLEAR     71  61  70 SE7       30.01S
FAIRFIELD *    CLEAR     66  61  82 E3        30.00S
FORT MADISON * CLEAR     73  61  64 SE5       30.02S
KEOKUK *       CLEAR     72  61  68 SE5       30.00S
OSKALOOSA *      N/A     67  62  84 SE3       30.00S
OTTUMWA        CLEAR     71  62  73 SE6       29.99S
WASHINGTON *   CLEAR     64  63  94 E5        30.02S
$$

ABBREVIATIONS USED IN REMARKS
   TC - TEMPERATURES IN CELSIUS
  WCI - WIND CHILL INDEX
   HX - HEAT INDEX
  VSB - VISIBILITY
$$





USA.gov is the U.S. government's official web portal to all federal, state and local government web resources and services.